Muncie, IN

2:56 PM EST on February 14, 2016 (GMT -0500)
Delaware County-Johnson

Weather History for KMIE - November, 2013

Change the Weather History Date:

Thursday, November 7, 2013

  Actual Average Record
Temperature  
Mean Temperature 40 °F 46 °F  
Max Temperature 47 °F 56 °F 77 °F (1975)
Min Temperature 33 °F 37 °F 17 °F (1971)
Degree Days  
Heating Degree Days 25 19  
Month to date heating degree days 124 122  
Since 1 July heating degree days 596 586  
Cooling Degree Days 0 0  
Month to date cooling degree days 0 0  
Year to date cooling degree days 973 955  
Moisture  
Dew Point 31 °F    
Average Humidity 66    
Maximum Humidity 89    
Minimum Humidity 42    
Precipitation  
Precipitation 0.00 in 0.11 in 0.76 in (1977)
Month to date precipitation 0.19 0.74  
Year to date precipitation 32.80 34.53  
Sea Level Pressure  
Sea Level Pressure 30.19 in    
Wind  
Wind Speed 11 mph (WNW)    
Max Wind Speed 21 mph    
Max Gust Speed 26 mph    
Visibility 10 miles    
Events      
T = Trace of Precipitation, MM = Missing Value Source: NWS Daily Summary

Daily Weather History Graph

Daily Weather History Graph

Search for Another Location

Airport or City:

Trip Planner

Search our weather history database for the weather conditions in past years. The results will help you decide how hot, cold, wet, or windy it might be!

Date:

Astronomy

Nov. 07, 2013 Rise Set
Actual Time 7:18 AM EST 5:31 PM EST
Civil Twilight 6:49 AM EST 6:00 PM EST
Nautical Twilight 6:17 AM EST 6:32 PM EST
Astronomical Twilight 5:45 AM EST 7:04 PM EST
Moon 11:26 AM EST (11/7) 9:42 PM EST (11/7)
Length of Visible Light 11h 10m
Length of Day
10h 13m
Waxing Crescent, 22% of the Moon is Illuminated
Nov 7
Waxing Crescent
Nov 10
First Quarter
Nov 17
Full
Nov 25
Last Quarter
Dec 2
New

Hourly Weather History & Observations

Time (EST) Temp. Windchill Dew Point Humidity Pressure Visibility Wind Dir Wind Speed Gust Speed Precip Events Conditions
12:09 AM 42.8 °F 37.0 °F 39.2 °F 87% 30.09 in 10.0 mi NW 10.4 mph - N/A   Overcast
12:53 AM 42.1 °F 35.7 °F 39.0 °F 89% 30.09 in 9.0 mi NW 11.5 mph - N/A   Overcast
1:21 AM 41.0 °F 35.2 °F 39.2 °F 93% 30.10 in 9.0 mi NW 9.2 mph - N/A   Overcast
1:53 AM 41.0 °F 34.3 °F 37.9 °F 89% 30.10 in 10.0 mi NW 11.5 mph - N/A   Overcast
2:53 AM 41.0 °F 34.7 °F 36.0 °F 82% 30.11 in 10.0 mi NW 10.4 mph - N/A   Overcast
3:53 AM 39.9 °F 32.9 °F 36.0 °F 86% 30.12 in 10.0 mi WNW 11.5 mph - N/A   Overcast
4:19 AM 39.2 °F 32.0 °F 35.6 °F 87% 30.13 in 10.0 mi NW 11.5 mph - N/A   Overcast
4:53 AM 37.9 °F 31.5 °F 34.0 °F 86% 30.15 in 10.0 mi WNW 9.2 mph - N/A   Partly Cloudy
5:53 AM 36.0 °F 28.5 °F 32.0 °F 86% 30.17 in 10.0 mi WNW 10.4 mph - N/A   Clear
6:53 AM 34.0 °F 27.2 °F 30.0 °F 85% 30.20 in 10.0 mi WNW 8.1 mph - N/A   Clear
7:53 AM 34.0 °F 27.2 °F 28.9 °F 82% 30.22 in 10.0 mi WNW 8.1 mph - N/A   Clear
8:53 AM 36.0 °F 29.6 °F 28.9 °F 76% 30.25 in 10.0 mi WNW 8.1 mph - N/A   Clear
9:53 AM 39.0 °F 32.3 °F 30.0 °F 70% 30.26 in 10.0 mi NW 10.4 mph - N/A   Clear
10:53 AM 42.1 °F 34.5 °F 30.0 °F 62% 30.27 in 10.0 mi WNW 15.0 mph - N/A   Clear
11:53 AM 43.0 °F 37.2 °F 28.9 °F 58% 30.26 in 10.0 mi WNW 10.4 mph - N/A   Clear
12:53 PM 45.0 °F 38.9 °F 27.0 °F 49% 30.23 in 10.0 mi WNW 12.7 mph 19.6 mph N/A   Clear
1:53 PM 46.0 °F 40.6 °F 26.1 °F 46% 30.21 in 10.0 mi WNW 11.5 mph - N/A   Clear
2:53 PM 46.9 °F - 25.0 °F 42% 30.20 in 10.0 mi West 13.8 mph - N/A   Partly Cloudy
3:53 PM 46.0 °F 38.8 °F 24.1 °F 42% 30.19 in 10.0 mi West 18.4 mph 26.5 mph N/A   Clear
4:53 PM 45.0 °F 38.9 °F 25.0 °F 46% 30.19 in 10.0 mi West 12.7 mph - N/A   Scattered Clouds
5:53 PM 44.1 °F 39.5 °F 27.0 °F 51% 30.20 in 10.0 mi West 8.1 mph - N/A   Overcast
6:53 PM 43.0 °F 36.8 °F 30.0 °F 60% 30.20 in 10.0 mi West 11.5 mph - N/A   Overcast
7:53 PM 42.1 °F 37.7 °F 30.9 °F 65% 30.20 in 10.0 mi West 6.9 mph - N/A   Overcast
8:53 PM 41.0 °F 36.4 °F 30.9 °F 67% 30.18 in 10.0 mi WSW 6.9 mph - N/A   Mostly Cloudy
9:53 PM 41.0 °F 32.8 °F 32.0 °F 70% 30.19 in 10.0 mi West 16.1 mph 21.9 mph N/A   Scattered Clouds
10:28 PM 39.2 °F 30.5 °F 33.8 °F 81% 30.20 in 10.0 mi WNW 16.1 mph 21.9 mph N/A   Mostly Cloudy
10:53 PM 39.0 °F 30.6 °F 34.0 °F 82% 30.21 in 9.0 mi WNW 15.0 mph - N/A   Overcast
11:22 PM 37.4 °F 30.3 °F 30.2 °F 75% 30.22 in 8.0 mi WNW 10.4 mph - N/A   Overcast
11:53 PM 36.0 °F 28.0 °F 30.0 °F 79% 30.24 in 8.0 mi West 11.5 mph - N/A   Scattered Clouds